| time (UTC) | temp C | wind direction | speed KPH | gust KPH | rain 1hr cm | rain 24hr cm | rain mn cm | humidity % | barometer mb |
| 20260503033825 | 6 | 71 | 0.0 | 0.0 | 0.00 | 0.51 | 0.51 | 51 | 1020.7 |
| 20260503032821 | 6 | 80 | 0.0 | 0.0 | 0.00 | 0.51 | 0.51 | 53 | 1021.1 |
| 20260503031816 | 6 | 68 | 0.0 | 1.6 | 0.00 | 0.51 | 0.51 | 49 | 1020.6 |
| 20260503030816 | 7 | 72 | 0.0 | 0.0 | 0.00 | 0.51 | 0.51 | 47 | 1020.7 |
| 20260503025815 | 7 | 69 | 0.0 | 0.0 | 0.00 | 0.51 | 0.51 | 46 | 1020.6 |
| 20260503024815 | 7 | 66 | 1.6 | 1.6 | 0.00 | 0.51 | 0.51 | 47 | 1020.7 |
| 20260503023814 | 7 | 67 | 0.0 | 0.0 | 0.00 | 0.51 | 0.51 | 46 | 1020.8 |
| 20260503022814 | 8 | 70 | 1.6 | 1.6 | 0.00 | 0.51 | 0.51 | 44 | 1021.1 |
| 20260503021811 | 8 | 61 | 0.0 | 1.6 | 0.00 | 0.51 | 0.51 | 44 | 1021.1 |
| 20260503020810 | 8 | 68 | 1.6 | 6.4 | 0.00 | 0.51 | 0.51 | 42 | 1021.1 |
| 20260503015810 | 8 | 54 | 3.2 | 3.2 | 0.00 | 0.51 | 0.51 | 44 | 1020.9 |
| 20260503014809 | 8 | 67 | 0.0 | 1.6 | 0.00 | 0.51 | 0.51 | 46 | 1021.1 |
| 20260503013804 | 7 | 75 | 0.0 | 0.0 | 0.00 | 0.51 | 0.51 | 46 | 1020.8 |
| 20260503012758 | 8 | 75 | 0.0 | 0.0 | 0.00 | 0.51 | 0.51 | 44 | 1020.8 |
| 20260503011758 | 8 | 77 | 0.0 | 0.0 | 0.00 | 0.51 | 0.51 | 44 | 1020.6 |
| 20260503010757 | 8 | 72 | 0.0 | 0.0 | 0.00 | 0.51 | 0.51 | 43 | 1020.6 |
| 20260503005757 | 8 | 71 | 0.0 | 1.6 | 0.00 | 0.51 | 0.51 | 42 | 1020.5 |
| 20260503004756 | 9 | 72 | 0.0 | 0.0 | 0.00 | 0.51 | 0.51 | 42 | 1020.5 |
| 20260503003751 | 9 | 63 | 0.0 | 3.2 | 0.00 | 0.51 | 0.51 | 44 | 1020.4 |
| 20260503002751 | 10 | 76 | 0.0 | 0.0 | 0.00 | 0.51 | 0.51 | 43 | 1020.1 |
| 20260503001750 | 10 | 43 | 3.2 | 4.8 | 0.00 | 0.51 | 0.51 | 40 | 1020.2 |
| 20260503000745 | 10 | 74 | 0.0 | 0.0 | 0.00 | 0.51 | 0.51 | 42 | 1020.1 |
| 20260502235745 | 10 | 71 | 0.0 | 0.0 | 0.00 | 0.51 | 0.51 | 42 | 1020.0 |
| 20260502234744 | 11 | 68 | 0.0 | 0.0 | 0.00 | 0.51 | 0.51 | 39 | 1019.9 |
| 20260502233743 | 11 | 69 | 0.0 | 0.0 | 0.00 | 0.51 | 0.51 | 39 | 1020.0 |
| 20260502232742 | 11 | 53 | 1.6 | 1.6 | 0.00 | 0.51 | 0.51 | 35 | 1020.2 |
| 20260502231742 | 11 | 60 | 0.0 | 3.2 | 0.00 | 0.51 | 0.51 | 35 | 1020.1 |
| 20260502230738 | 12 | 15 | 3.2 | 3.2 | 0.00 | 0.51 | 0.51 | 36 | 1019.8 |
| 20260502225738 | 12 | 354 | 4.8 | 4.8 | 0.00 | 0.51 | 0.51 | 36 | 1019.7 |
| 20260502224737 | 12 | 48 | 3.2 | 6.4 | 0.00 | 0.51 | 0.51 | 36 | 1019.8 |
| 20260502223737 | 12 | 66 | 3.2 | 6.4 | 0.00 | 0.51 | 0.51 | 34 | 1019.6 |
| 20260502222733 | 12 | 197 | 6.4 | 9.7 | 0.00 | 0.51 | 0.51 | 32 | 1019.5 |
| 20260502221731 | 12 | 37 | 3.2 | 4.8 | 0.00 | 0.51 | 0.51 | 35 | 1019.5 |
| 20260502220730 | 13 | 7 | 3.2 | 9.7 | 0.00 | 0.51 | 0.51 | 36 | 1019.2 |
| 20260502215729 | 13 | 54 | 1.6 | 6.4 | 0.00 | 0.51 | 0.51 | 34 | 1019.2 |
| 20260502214724 | 12 | 54 | 1.6 | 3.2 | 0.00 | 0.51 | 0.51 | 36 | 1019.1 |
| 20260502213724 | 13 | 60 | 1.6 | 4.8 | 0.00 | 0.51 | 0.51 | 35 | 1019.3 |
| 20260502212720 | 13 | 309 | 4.8 | 11.3 | 0.00 | 0.51 | 0.51 | 34 | 1019.1 |
| 20260502211719 | 14 | 18 | 6.4 | 6.4 | 0.00 | 0.51 | 0.51 | 33 | 1019.0 |
| 20260502210719 | 14 | 6 | 6.4 | 6.4 | 0.00 | 0.51 | 0.51 | 36 | 1018.9 |
| 20260502205714 | 15 | 317 | 4.8 | 6.4 | 0.00 | 0.51 | 0.51 | 31 | 1018.8 |
| 20260502204713 | 16 | 326 | 3.2 | 4.8 | 0.00 | 0.51 | 0.51 | 31 | 1018.7 |
| 20260502203708 | 15 | 248 | 4.8 | 12.9 | 0.00 | 0.51 | 0.51 | 31 | 1018.7 |
| 20260502202705 | 13 | 347 | 3.2 | 6.4 | 0.00 | 0.51 | 0.51 | 34 | 1018.6 |
| 20260502201701 | 14 | 54 | 1.6 | 3.2 | 0.00 | 0.51 | 0.51 | 32 | 1019.0 |
| 20260502200659 | 14 | 46 | 3.2 | 4.8 | 0.00 | 0.51 | 0.51 | 33 | 1018.9 |
| 20260502195654 | 14 | 50 | 3.2 | 4.8 | 0.00 | 0.51 | 0.51 | 32 | 1019.0 |
| 20260502194653 | 14 | 49 | 1.6 | 4.8 | 0.00 | 0.51 | 0.51 | 33 | 1019.3 |
| 20260502193652 | 14 | 55 | 3.2 | 6.4 | 0.00 | 0.51 | 0.51 | 36 | 1019.3 |
| 20260502192650 | 14 | 30 | 3.2 | 3.2 | 0.00 | 0.51 | 0.51 | 37 | 1019.3 |
| 20260502191645 | 13 | 65 | 0.0 | 1.6 | 0.00 | 0.51 | 0.51 | 39 | 1019.5 |
| 20260502190645 | 13 | 64 | 0.0 | 4.8 | 0.00 | 0.51 | 0.51 | 46 | 1019.8 |
| 20260502185643 | 13 | 62 | 1.6 | 3.2 | 0.00 | 0.51 | 0.51 | 48 | 1019.7 |
| 20260502184643 | 13 | 38 | 3.2 | 3.2 | 0.00 | 0.51 | 0.51 | 50 | 1019.8 |
| 20260502183640 | 13 | 77 | 1.6 | 4.8 | 0.00 | 0.51 | 0.51 | 45 | 1019.8 |
| 20260502182636 | 13 | 100 | 3.2 | 3.2 | 0.00 | 0.51 | 0.51 | 41 | 1019.7 |
| 20260502181635 | 13 | 156 | 3.2 | 3.2 | 0.00 | 0.51 | 0.51 | 43 | 1019.8 |
| 20260502180631 | 13 | 73 | 1.6 | 3.2 | 0.00 | 0.51 | 0.51 | 48 | 1019.8 |
| 20260502163620 | 13 | 56 | 1.6 | 3.2 | 0.00 | 0.51 | 0.51 | 53 | 1020.7 |
| 20260502162619 | 13 | 67 | 0.0 | 1.6 | 0.00 | 0.51 | 0.51 | 58 | 1020.6 |
| 20260502161620 | 12 | 92 | 1.6 | 4.8 | 0.00 | 0.51 | 0.51 | 60 | 1020.8 |
| 20260502160615 | 12 | 67 | 3.2 | 3.2 | 0.00 | 0.51 | 0.51 | 64 | 1020.9 |
| 20260502151536 | 10 | 57 | 1.6 | 3.2 | 0.00 | 0.51 | 0.51 | 83 | 1021.2 |
| 20260502150531 | 9 | 74 | 0.0 | 3.2 | 0.00 | 0.51 | 0.51 | 83 | 1021.4 |
| 20260502130514 | 8 | 4 | 3.2 | 3.2 | 0.00 | 0.51 | 0.51 | 89 | 1021.4 |
| 20260502123508 | 8 | 79 | 0.0 | 1.6 | 0.00 | 0.51 | 0.51 | 93 | 1021.1 |
| 20260502122507 | 8 | 51 | 1.6 | 1.6 | 0.00 | 0.51 | 0.51 | 95 | 1021.1 |
| 20260502121502 | 8 | 93 | 0.0 | 1.6 | 0.00 | 0.51 | 0.51 | 95 | 1020.8 |
| 20260502120501 | 8 | 75 | 0.0 | 1.6 | 0.00 | 0.51 | 0.51 | 96 | 1020.7 |
| 20260502115501 | 8 | 96 | 0.0 | 0.0 | 0.00 | 0.51 | 0.51 | 96 | 1021.1 |
| 20260502114500 | 7 | 108 | 1.6 | 3.2 | 0.00 | 0.51 | 0.51 | 96 | 1020.9 |
| 20260502113500 | 7 | 165 | 3.2 | 3.2 | 0.00 | 0.51 | 0.51 | 96 | 1020.9 |
| 20260502112456 | 7 | 95 | 1.6 | 1.6 | 0.00 | 0.51 | 0.51 | 96 | 1020.9 |
| 20260502111456 | 7 | 68 | 0.0 | 1.6 | 0.00 | 0.51 | 0.51 | 96 | 1020.9 |
| 20260502110451 | 7 | 78 | 0.0 | 0.0 | 0.00 | 0.51 | 0.51 | 96 | 1020.7 |
| 20260502105446 | 7 | 78 | 0.0 | 0.0 | 0.00 | 0.51 | 0.51 | 96 | 1020.6 |
| 20260502104446 | 7 | 78 | 0.0 | 0.0 | 0.00 | 0.51 | 0.51 | 96 | 1020.5 |
| 20260502103441 | 7 | 78 | 0.0 | 0.0 | 0.00 | 0.51 | 0.51 | 96 | 1020.3 |
| 20260502102441 | 7 | 78 | 0.0 | 0.0 | 0.00 | 0.51 | 0.51 | 96 | 1020.5 |
| 20260502101436 | 7 | 78 | 0.0 | 0.0 | 0.00 | 0.51 | 0.51 | 96 | 1020.4 |
| 20260502100433 | 7 | 78 | 0.0 | 0.0 | 0.00 | 0.51 | 0.51 | 96 | 1020.4 |
| 20260502091419 | 7 | 78 | 0.0 | 0.0 | 0.00 | 0.51 | 0.51 | 95 | 1019.8 |
| 20260502090419 | 7 | 78 | 0.0 | 0.0 | 0.18 | 0.51 | 0.51 | 95 | 1019.9 |
| 20260502071354 | 8 | 72 | 0.0 | 0.0 | 0.00 | 0.15 | 0.15 | 94 | 1020.4 |
| 20260502070350 | 8 | 73 | 0.0 | 0.0 | 0.00 | 0.15 | 0.15 | 94 | 1020.6 |
| 20260502065346 | 8 | 67 | 0.0 | 0.0 | 0.13 | 0.15 | 0.15 | 93 | 1020.7 |
| 20260502064342 | 8 | 66 | 0.0 | 0.0 | 0.00 | 0.13 | 0.13 | 93 | 1020.8 |
| 20260502063342 | 8 | 68 | 0.0 | 0.0 | 0.00 | 0.13 | 0.13 | 92 | 1021.2 |
| 20260502062337 | 8 | 61 | 0.0 | 1.6 | 0.30 | 0.13 | 0.13 | 92 | 1021.2 |
| 20260502061333 | 8 | 63 | 0.0 | 0.0 | 0.36 | 0.08 | 0.08 | 93 | 1021.4 |
| 20260502060329 | 8 | 78 | 0.0 | 0.0 | 0.00 | 0.03 | 0.03 | 92 | 1020.7 |
| 20260502055325 | 8 | 74 | 0.0 | 0.0 | 0.00 | 0.03 | 0.03 | 92 | 1020.5 |
| 20260502054322 | 8 | 74 | 0.0 | 1.6 | 0.00 | 0.03 | 0.03 | 91 | 1020.7 |
| 20260502053322 | 8 | 83 | 0.0 | 1.6 | 0.00 | 0.03 | 0.03 | 90 | 1021.1 |
| 20260502052318 | 8 | 83 | 0.0 | 0.0 | 0.00 | 0.03 | 0.03 | 89 | 1021.1 |
| 20260502051314 | 8 | 69 | 0.0 | 0.0 | 0.00 | 0.03 | 0.03 | 88 | 1020.6 |
| 20260502050312 | 9 | 69 | 0.0 | 0.0 | 0.13 | 0.03 | 0.03 | 86 | 1020.6 |
| 20260502045311 | 9 | 67 | 0.0 | 0.0 | 0.00 | 0.00 | 0.00 | 83 | 1020.7 |
| 20260502044310 | 9 | 46 | 0.0 | 0.0 | 0.00 | 0.00 | 0.00 | 81 | 1020.5 |
| 20260502043305 | 10 | 78 | 0.0 | 0.0 | 0.00 | 0.00 | 0.00 | 77 | 1020.2 |
| 20260502042305 | 10 | 78 | 0.0 | 0.0 | 0.00 | 0.00 | 0.00 | 76 | 1020.4 |
| 20260502041257 | 10 | 78 | 0.0 | 0.0 | 0.00 | 0.00 | 0.00 | 77 | 1020.3 |
| 20260502040256 | 9 | 77 | 0.0 | 0.0 | 0.00 | 0.00 | 0.00 | 75 | 1020.3 |
| 20260502035255 | 9 | 77 | 0.0 | 0.0 | 0.00 | 0.00 | 0.00 | 75 | 1020.6 |
| 20260502034251 | 9 | 77 | 0.0 | 0.0 | 0.00 | 0.00 | 0.00 | 77 | 1020.4 |